STARLINK-1658 (46368 NORAD) Tracking and Keplerian Element Data

This shows tracking and keplerian element data for the satellite.

Feedback or suggestion? Click here.




ElementValue
Catalog46368
NameSTARLINK-1658
Epoch Orbit178
Epoch Day268.91668981
Epoch Year2020
RAAN324.5068
Inclination53.0002
Eccentricity0.0001206
Argument of Perigee67.0916
Mean Anonmoly136.6999
Mean Motion15.62737768
Decay Rate0.00023086
L11 46368U 20062AV 20268.91668981 .00023086 00000-0 25739-3 0 9991
L22 46368 53.0002 324.5068 0001206 67.0916 136.6999 15.62737768 1786

Live tracking and technical data element details for STARLINK-1658 (NORAD 46368). STARLINK-1658 can be tracked NOW for your location showing map with azimuth and elevation plus other details from your city location.

Track the satellite on the map from your city or location and see movement details for azimuth, elevation, latitude, longitude, range, height, and movement on the map or in text.







IsCatalogInMostPopularTable: catalog: 46368, numindb: 2
Update: records affected: 1



GetName: 46368 STARLINK-1658

Hit Count: updated at: Sat, 26 Sep 2020 13:46:23 GMT